| time (UTC) | temp F | wind direction | speed MPH | gust MPH | rain 1hr in | rain 24hr in | rain mn in | humidity % | barometer mb |
| 20260903053258 | 82 | 155 | 1.0 | 7.0 | 0.00 | 0.00 | 0.00 | 62 | 1013.4 |
| 20260903052751 | 82 | 168 | 1.0 | 5.0 | 0.00 | 0.00 | 0.00 | 62 | 1013.3 |
| 20260903052245 | 82 | 134 | 1.0 | 5.0 | 0.00 | 0.00 | 0.00 | 62 | 1013.3 |
| 20260903051740 | 82 | 151 | 1.0 | 6.0 | 0.00 | 0.00 | 0.00 | 62 | 1013.5 |
| 20260903051234 | 83 | 136 | 1.0 | 6.0 | 0.00 | 0.00 | 0.00 | 62 | 1013.4 |
| 20260903050735 | 83 | 156 | 0.0 | 3.0 | 0.00 | 0.00 | 0.00 | 61 | 1013.4 |
| 20260903050233 | 83 | 188 | 1.0 | 4.0 | 0.00 | 0.00 | 0.00 | 61 | 1013.4 |
| 20260903045731 | 83 | 218 | 1.0 | 5.0 | 0.00 | 0.00 | 0.00 | 61 | 1013.5 |
| 20260903045231 | 83 | 190 | 1.0 | 5.0 | 0.00 | 0.00 | 0.00 | 61 | 1013.4 |
| 20260903044731 | 83 | 162 | 1.0 | 5.0 | 0.00 | 0.00 | 0.00 | 61 | 1013.4 |
| 20260903044231 | 83 | 158 | 1.0 | 6.0 | 0.00 | 0.00 | 0.00 | 61 | 1013.4 |
| 20260903043731 | 83 | 167 | 1.0 | 6.0 | 0.00 | 0.00 | 0.00 | 61 | 1013.5 |
| 20260903042731 | 83 | 155 | 1.0 | 5.0 | 0.00 | 0.00 | 0.00 | 61 | 1013.5 |
| 20260903041725 | 83 | 171 | 1.0 | 5.0 | 0.00 | 0.00 | 0.00 | 60 | 1013.5 |
| 20260903041225 | 83 | 138 | 1.0 | 5.0 | 0.00 | 0.00 | 0.00 | 60 | 1013.5 |
| 20260903040724 | 84 | 135 | 1.0 | 5.0 | 0.00 | 0.00 | 0.00 | 60 | 1013.5 |
| 20260903040224 | 84 | 158 | 1.0 | 6.0 | 0.00 | 0.00 | 0.00 | 60 | 1013.5 |
| 20260903035723 | 84 | 163 | 1.0 | 6.0 | 0.00 | 0.00 | 0.00 | 59 | 1013.5 |
| 20260903035223 | 84 | 144 | 1.0 | 2.0 | 0.00 | 0.00 | 0.00 | 59 | 1013.6 |
| 20260903034723 | 85 | 143 | 1.0 | 3.0 | 0.00 | 0.00 | 0.00 | 59 | 1013.6 |
| 20260903034222 | 85 | 117 | 1.0 | 3.0 | 0.00 | 0.00 | 0.00 | 58 | 1013.6 |
| 20260903033721 | 85 | 103 | 1.0 | 3.0 | 0.00 | 0.00 | 0.00 | 58 | 1013.7 |
| 20260903033222 | 85 | 133 | 1.0 | 6.0 | 0.00 | 0.00 | 0.00 | 58 | 1013.5 |
| 20260903032721 | 85 | 131 | 1.0 | 6.0 | 0.00 | 0.00 | 0.00 | 57 | 1013.6 |
| 20260903032221 | 86 | 132 | 2.0 | 5.0 | 0.00 | 0.00 | 0.00 | 57 | 1013.6 |
| 20260903031721 | 86 | 118 | 2.0 | 5.0 | 0.00 | 0.00 | 0.00 | 57 | 1013.5 |
| 20260903031219 | 86 | 117 | 2.0 | 7.0 | 0.00 | 0.00 | 0.00 | 56 | 1013.6 |
| 20260903030720 | 86 | 116 | 2.0 | 7.0 | 0.00 | 0.00 | 0.00 | 56 | 1013.5 |
| 20260903030219 | 86 | 126 | 2.0 | 5.0 | 0.00 | 0.00 | 0.00 | 56 | 1013.6 |
| 20260903025717 | 87 | 155 | 2.0 | 6.0 | 0.00 | 0.00 | 0.00 | 56 | 1013.6 |
| 20260903025215 | 87 | 135 | 2.0 | 6.0 | 0.00 | 0.00 | 0.00 | 55 | 1013.4 |
| 20260903024717 | 87 | 92 | 2.0 | 5.0 | 0.00 | 0.00 | 0.00 | 55 | 1013.4 |
| 20260903024210 | 87 | 148 | 2.0 | 7.0 | 0.00 | 0.00 | 0.00 | 55 | 1013.4 |
| 20260903023703 | 87 | 132 | 2.0 | 7.0 | 0.00 | 0.00 | 0.00 | 55 | 1013.4 |
| 20260903023157 | 87 | 151 | 2.0 | 8.0 | 0.00 | 0.00 | 0.00 | 55 | 1013.3 |
| 20260903022651 | 88 | 123 | 2.0 | 8.0 | 0.00 | 0.00 | 0.00 | 55 | 1013.3 |
| 20260903022146 | 88 | 131 | 2.0 | 5.0 | 0.00 | 0.00 | 0.00 | 54 | 1013.3 |
| 20260903021639 | 88 | 138 | 2.0 | 6.0 | 0.00 | 0.00 | 0.00 | 54 | 1013.2 |
| 20260903021133 | 88 | 132 | 2.0 | 6.0 | 0.00 | 0.00 | 0.00 | 54 | 1013.2 |
| 20260903020627 | 88 | 157 | 2.0 | 7.0 | 0.00 | 0.00 | 0.00 | 54 | 1013.0 |
| 20260903020121 | 88 | 143 | 2.0 | 7.0 | 0.00 | 0.00 | 0.00 | 54 | 1013.0 |
| 20260903015615 | 88 | 157 | 1.0 | 5.0 | 0.00 | 0.00 | 0.00 | 54 | 1012.9 |
| 20260903015110 | 88 | 84 | 1.0 | 3.0 | 0.00 | 0.00 | 0.00 | 54 | 1012.9 |
| 20260903014604 | 88 | 132 | 1.0 | 4.0 | 0.00 | 0.00 | 0.00 | 54 | 1012.9 |
| 20260903014057 | 88 | 128 | 1.0 | 4.0 | 0.00 | 0.00 | 0.00 | 54 | 1012.8 |
| 20260903013551 | 89 | 130 | 1.0 | 2.0 | 0.00 | 0.00 | 0.00 | 54 | 1012.7 |
| 20260903013045 | 89 | 128 | 1.0 | 3.0 | 0.00 | 0.00 | 0.00 | 53 | 1012.6 |
| 20260903012540 | 89 | 127 | 1.0 | 3.0 | 0.00 | 0.00 | 0.00 | 53 | 1012.6 |
| 20260903012034 | 90 | 136 | 1.0 | 3.0 | 0.00 | 0.00 | 0.00 | 52 | 1012.6 |
| 20260903011022 | 91 | 155 | 1.0 | 3.0 | 0.00 | 0.00 | 0.00 | 51 | 1012.6 |
| 20260903010516 | 91 | 121 | 1.0 | 6.0 | 0.00 | 0.00 | 0.00 | 51 | 1012.6 |
| 20260903005503 | 92 | 130 | 2.0 | 7.0 | 0.00 | 0.00 | 0.00 | 51 | 1012.5 |
| 20260903004957 | 92 | 143 | 2.0 | 7.0 | 0.00 | 0.00 | 0.00 | 50 | 1012.4 |
| 20260903004451 | 92 | 128 | 1.0 | 4.0 | 0.00 | 0.00 | 0.00 | 50 | 1012.4 |
| 20260903003946 | 93 | 150 | 1.0 | 4.0 | 0.00 | 0.00 | 0.00 | 49 | 1012.4 |
| 20260903003439 | 93 | 163 | 1.0 | 5.0 | 0.00 | 0.00 | 0.00 | 49 | 1012.3 |
| 20260903002933 | 93 | 160 | 2.0 | 5.0 | 0.00 | 0.00 | 0.00 | 48 | 1012.4 |
| 20260903002427 | 94 | 136 | 2.0 | 6.0 | 0.00 | 0.00 | 0.00 | 48 | 1012.4 |
| 20260903001921 | 94 | 121 | 2.0 | 6.0 | 0.00 | 0.00 | 0.00 | 47 | 1012.3 |
| 20260903000909 | 94 | 130 | 2.0 | 6.0 | 0.00 | 0.00 | 0.00 | 47 | 1012.4 |
| 20260903000407 | 95 | 148 | 2.0 | 6.0 | 0.00 | 0.00 | 0.00 | 46 | 1012.4 |
| 20260902235907 | 95 | 135 | 2.0 | 5.0 | 0.00 | 0.00 | 0.00 | 46 | 1012.3 |
| 20260902235407 | 95 | 150 | 2.0 | 5.0 | 0.00 | 0.00 | 0.00 | 45 | 1012.3 |
| 20260902234906 | 96 | 129 | 2.0 | 6.0 | 0.00 | 0.00 | 0.00 | 44 | 1012.3 |
| 20260902234407 | 96 | 142 | 2.0 | 10.0 | 0.00 | 0.00 | 0.00 | 44 | 1012.4 |
| 20260902233905 | 96 | 153 | 3.0 | 10.0 | 0.00 | 0.00 | 0.00 | 43 | 1012.4 |
| 20260902233405 | 97 | 203 | 3.0 | 8.0 | 0.00 | 0.00 | 0.00 | 43 | 1012.4 |
| 20260902232905 | 97 | 147 | 2.0 | 8.0 | 0.00 | 0.00 | 0.00 | 42 | 1012.4 |
| 20260902232405 | 97 | 116 | 2.0 | 7.0 | 0.00 | 0.00 | 0.00 | 42 | 1012.4 |
| 20260902231905 | 97 | 164 | 2.0 | 10.0 | 0.00 | 0.00 | 0.00 | 41 | 1012.4 |
| 20260902231404 | 98 | 209 | 2.0 | 10.0 | 0.00 | 0.00 | 0.00 | 42 | 1012.5 |
| 20260902230905 | 98 | 155 | 2.0 | 7.0 | 0.00 | 0.00 | 0.00 | 41 | 1012.6 |
| 20260902230405 | 98 | 175 | 1.0 | 7.0 | 0.00 | 0.00 | 0.00 | 41 | 1012.6 |
| 20260902225905 | 98 | 133 | 2.0 | 7.0 | 0.00 | 0.00 | 0.00 | 41 | 1012.5 |
| 20260902225405 | 98 | 129 | 2.0 | 11.0 | 0.00 | 0.00 | 0.00 | 41 | 1012.6 |
| 20260902224905 | 98 | 166 | 2.0 | 11.0 | 0.00 | 0.00 | 0.00 | 40 | 1012.6 |
| 20260902224404 | 99 | 128 | 2.0 | 10.0 | 0.00 | 0.00 | 0.00 | 40 | 1012.6 |
| 20260902223859 | 98 | 140 | 2.0 | 10.0 | 0.00 | 0.00 | 0.00 | 41 | 1012.6 |
| 20260902222851 | 99 | 144 | 1.0 | 4.0 | 0.00 | 0.00 | 0.00 | 40 | 1012.6 |
| 20260902222351 | 99 | 296 | 1.0 | 6.0 | 0.00 | 0.00 | 0.00 | 42 | 1012.6 |
| 20260902221849 | 99 | 126 | 1.0 | 6.0 | 0.00 | 0.00 | 0.00 | 40 | 1012.7 |
| 20260902221349 | 99 | 145 | 2.0 | 6.0 | 0.00 | 0.00 | 0.00 | 40 | 1012.7 |
| 20260902220348 | 99 | 256 | 2.0 | 7.0 | 0.00 | 0.00 | 0.00 | 41 | 1012.8 |
| 20260902215848 | 99 | 148 | 2.0 | 6.0 | 0.00 | 0.00 | 0.00 | 39 | 1012.8 |
| 20260902215346 | 100 | 157 | 2.0 | 6.0 | 0.00 | 0.00 | 0.00 | 39 | 1012.9 |
| 20260902214845 | 100 | 150 | 3.0 | 10.0 | 0.00 | 0.00 | 0.00 | 39 | 1012.8 |
| 20260902214345 | 100 | 195 | 3.0 | 10.0 | 0.00 | 0.00 | 0.00 | 38 | 1012.9 |
| 20260902213845 | 100 | 105 | 2.0 | 9.0 | 0.00 | 0.00 | 0.00 | 39 | 1012.9 |
| 20260902213342 | 100 | 159 | 1.0 | 6.0 | 0.00 | 0.00 | 0.00 | 39 | 1013.0 |
| 20260902212843 | 100 | 267 | 1.0 | 6.0 | 0.00 | 0.00 | 0.00 | 39 | 1013.2 |
| 20260902212343 | 100 | 233 | 2.0 | 8.0 | 0.00 | 0.00 | 0.00 | 38 | 1013.0 |
| 20260902210840 | 100 | 103 | 3.0 | 14.0 | 0.00 | 0.00 | 0.00 | 38 | 1013.3 |
| 20260902210340 | 101 | 136 | 2.0 | 9.0 | 0.00 | 0.00 | 0.00 | 39 | 1013.3 |
| 20260902205841 | 100 | 250 | 4.0 | 14.0 | 0.00 | 0.00 | 0.00 | 40 | 1013.4 |
| 20260902205340 | 100 | 127 | 4.0 | 14.0 | 0.00 | 0.00 | 0.00 | 39 | 1013.4 |
| 20260902204840 | 100 | 111 | 2.0 | 9.0 | 0.00 | 0.00 | 0.00 | 38 | 1013.5 |
| 20260902203840 | 100 | 137 | 2.0 | 9.0 | 0.00 | 0.00 | 0.00 | 41 | 1013.5 |
| 20260902203341 | 100 | 148 | 3.0 | 8.0 | 0.00 | 0.00 | 0.00 | 40 | 1013.6 |
| 20260902202841 | 100 | 98 | 3.0 | 10.0 | 0.00 | 0.00 | 0.00 | 40 | 1013.8 |
| 20260902201840 | 99 | 134 | 3.0 | 10.0 | 0.00 | 0.00 | 0.00 | 40 | 1013.9 |
| 20260902201340 | 100 | 137 | 3.0 | 9.0 | 0.00 | 0.00 | 0.00 | 39 | 1013.9 |
| 20260902200841 | 100 | 211 | 3.0 | 11.0 | 0.00 | 0.00 | 0.00 | 40 | 1013.9 |
| 20260902200340 | 101 | 161 | 3.0 | 11.0 | 0.00 | 0.00 | 0.00 | 40 | 1014.0 |
| 20260902195840 | 101 | 115 | 2.0 | 11.0 | 0.00 | 0.00 | 0.00 | 39 | 1014.0 |
| 20260902194841 | 100 | 184 | 3.0 | 10.0 | 0.00 | 0.00 | 0.00 | 42 | 1014.2 |
| 20260902193836 | 101 | 109 | 3.0 | 11.0 | 0.00 | 0.00 | 0.00 | 41 | 1014.1 |
| 20260902192824 | 100 | 131 | 3.0 | 9.0 | 0.00 | 0.00 | 0.00 | 41 | 1014.5 |
| 20260902192318 | 100 | 147 | 3.0 | 9.0 | 0.00 | 0.00 | 0.00 | 41 | 1014.5 |
| 20260902191819 | 100 | 148 | 3.0 | 9.0 | 0.00 | 0.00 | 0.00 | 43 | 1014.5 |
| 20260902190816 | 100 | 160 | 2.0 | 8.0 | 0.00 | 0.00 | 0.00 | 41 | 1014.5 |
| 20260902185816 | 100 | 127 | 2.0 | 8.0 | 0.00 | 0.00 | 0.00 | 43 | 1014.7 |
| 20260902185319 | 100 | 159 | 2.0 | 10.0 | 0.00 | 0.00 | 0.00 | 44 | 1014.7 |
| 20260902184816 | 99 | 255 | 3.0 | 10.0 | 0.00 | 0.00 | 0.00 | 43 | 1014.9 |
| 20260902184315 | 100 | 148 | 3.0 | 10.0 | 0.00 | 0.00 | 0.00 | 44 | 1014.9 |
| 20260902183315 | 100 | 310 | 2.0 | 8.0 | 0.00 | 0.00 | 0.00 | 44 | 1015.0 |
| 20260902182314 | 100 | 92 | 2.0 | 8.0 | 0.00 | 0.00 | 0.00 | 47 | 1015.2 |
| 20260902181814 | 99 | 219 | 2.0 | 10.0 | 0.00 | 0.00 | 0.00 | 46 | 1015.3 |
| 20260902181314 | 99 | 234 | 2.0 | 10.0 | 0.00 | 0.00 | 0.00 | 46 | 1015.3 |
| 20260902180815 | 98 | 218 | 2.0 | 9.0 | 0.00 | 0.00 | 0.00 | 47 | 1015.3 |
| 20260902180314 | 99 | 224 | 3.0 | 9.0 | 0.00 | 0.00 | 0.00 | 47 | 1015.5 |
| 20260902175814 | 98 | 275 | 4.0 | 10.0 | 0.00 | 0.00 | 0.00 | 48 | 1015.5 |
| 20260902175308 | 98 | 188 | 4.0 | 11.0 | 0.00 | 0.00 | 0.00 | 48 | 1015.5 |
| 20260902174802 | 98 | 138 | 3.0 | 11.0 | 0.00 | 0.00 | 0.00 | 48 | 1015.6 |
| 20260902174255 | 98 | 121 | 2.0 | 7.0 | 0.00 | 0.00 | 0.00 | 49 | 1015.6 |
| 20260902173749 | 98 | 218 | 2.0 | 10.0 | 0.00 | 0.00 | 0.00 | 48 | 1015.7 |
| 20260902173243 | 98 | 137 | 2.0 | 9.0 | 0.00 | 0.00 | 0.00 | 47 | 1015.7 |
| 20260902172232 | 98 | 253 | 2.0 | 10.0 | 0.00 | 0.00 | 0.00 | 48 | 1015.9 |
| 20260902171726 | 97 | 172 | 2.0 | 10.0 | 0.00 | 0.00 | 0.00 | 48 | 1015.9 |
| 20260902171219 | 97 | 150 | 2.0 | 8.0 | 0.00 | 0.00 | 0.00 | 49 | 1015.9 |
| 20260902170714 | 97 | 136 | 2.0 | 7.0 | 0.00 | 0.00 | 0.00 | 50 | 1016.0 |
| 20260902170208 | 97 | 183 | 2.0 | 7.0 | 0.00 | 0.00 | 0.00 | 48 | 1016.0 |
| 20260902165702 | 96 | 167 | 2.0 | 10.0 | 0.00 | 0.00 | 0.00 | 49 | 1016.0 |
| 20260902165155 | 96 | 221 | 2.0 | 10.0 | 0.00 | 0.00 | 0.00 | 50 | 1016.0 |
| 20260902164649 | 96 | 162 | 2.0 | 9.0 | 0.00 | 0.00 | 0.00 | 50 | 1016.1 |
| 20260902164144 | 96 | 239 | 2.0 | 13.0 | 0.00 | 0.00 | 0.00 | 50 | 1016.1 |
| 20260902163638 | 96 | 250 | 2.0 | 13.0 | 0.00 | 0.00 | 0.00 | 50 | 1016.1 |
| 20260902163132 | 95 | 233 | 2.0 | 10.0 | 0.00 | 0.00 | 0.00 | 52 | 1016.1 |
| 20260902162119 | 94 | 212 | 3.0 | 10.0 | 0.00 | 0.00 | 0.00 | 51 | 1016.2 |
| 20260902161614 | 94 | 229 | 2.0 | 10.0 | 0.00 | 0.00 | 0.00 | 51 | 1016.1 |
| 20260902161108 | 94 | 263 | 2.0 | 8.0 | 0.00 | 0.00 | 0.00 | 52 | 1016.1 |
| 20260902160602 | 93 | 191 | 2.0 | 8.0 | 0.00 | 0.00 | 0.00 | 52 | 1016.1 |
| 20260902160056 | 93 | 208 | 2.0 | 7.0 | 0.00 | 0.00 | 0.00 | 52 | 1016.2 |
| 20260902155549 | 93 | 192 | 2.0 | 5.0 | 0.00 | 0.00 | 0.00 | 53 | 1016.2 |
| 20260902155043 | 93 | 209 | 2.0 | 5.0 | 0.00 | 0.00 | 0.00 | 53 | 1016.2 |
| 20260902154032 | 92 | 173 | 2.0 | 8.0 | 0.00 | 0.00 | 0.00 | 54 | 1016.2 |
| 20260902153525 | 92 | 265 | 2.0 | 8.0 | 0.00 | 0.00 | 0.00 | 55 | 1016.1 |
| 20260902153020 | 91 | 160 | 1.0 | 8.0 | 0.00 | 0.00 | 0.00 | 56 | 1016.1 |
| 20260902152517 | 91 | 175 | 1.0 | 7.0 | 0.00 | 0.00 | 0.00 | 56 | 1016.1 |
| 20260902152018 | 91 | 208 | 1.0 | 7.0 | 0.00 | 0.00 | 0.00 | 57 | 1016.1 |
| 20260902151017 | 90 | 248 | 1.0 | 5.0 | 0.00 | 0.00 | 0.00 | 58 | 1016.0 |
| 20260902150516 | 89 | 279 | 2.0 | 7.0 | 0.00 | 0.00 | 0.00 | 56 | 1016.0 |
| 20260902150014 | 89 | 126 | 2.0 | 7.0 | 0.00 | 0.00 | 0.00 | 58 | 1016.1 |
| 20260902145512 | 88 | 165 | 2.0 | 5.0 | 0.00 | 0.00 | 0.00 | 59 | 1016.1 |
| 20260902145012 | 88 | 63 | 2.0 | 10.0 | 0.00 | 0.00 | 0.00 | 59 | 1016.0 |
| 20260902144012 | 87 | 144 | 1.0 | 4.0 | 0.00 | 0.00 | 0.00 | 60 | 1016.2 |
| 20260902143512 | 87 | 198 | 1.0 | 3.0 | 0.00 | 0.00 | 0.00 | 61 | 1016.1 |
| 20260902143012 | 86 | 130 | 1.0 | 4.0 | 0.00 | 0.00 | 0.00 | 61 | 1016.1 |
| 20260902142511 | 85 | 175 | 2.0 | 8.0 | 0.00 | 0.00 | 0.00 | 62 | 1016.1 |
| 20260902142012 | 85 | 147 | 2.0 | 8.0 | 0.00 | 0.00 | 0.00 | 62 | 1016.1 |
| 20260902141512 | 85 | 154 | 2.0 | 7.0 | 0.00 | 0.00 | 0.00 | 62 | 1016.2 |
| 20260902140011 | 84 | 135 | 1.0 | 6.0 | 0.00 | 0.00 | 0.00 | 63 | 1016.2 |
| 20260902135012 | 83 | 157 | 1.0 | 5.0 | 0.00 | 0.00 | 0.00 | 64 | 1016.2 |
| 20260902134512 | 83 | 159 | 1.0 | 5.0 | 0.00 | 0.00 | 0.00 | 65 | 1016.2 |
| 20260902134012 | 82 | 167 | 1.0 | 4.0 | 0.00 | 0.00 | 0.00 | 66 | 1016.2 |
| 20260902133511 | 81 | 123 | 1.0 | 5.0 | 0.00 | 0.00 | 0.00 | 67 | 1016.2 |
| 20260902133011 | 81 | 151 | 1.0 | 5.0 | 0.00 | 0.00 | 0.00 | 67 | 1016.2 |
| 20260902132512 | 80 | 158 | 1.0 | 5.0 | 0.00 | 0.00 | 0.00 | 68 | 1016.2 |
| 20260902131512 | 79 | 155 | 1.0 | 3.0 | 0.00 | 0.00 | 0.00 | 70 | 1016.1 |
| 20260902130512 | 78 | 117 | 1.0 | 6.0 | 0.00 | 0.00 | 0.00 | 71 | 1016.1 |
| 20260902125512 | 77 | 130 | 1.0 | 3.0 | 0.00 | 0.00 | 0.00 | 73 | 1016.1 |
| 20260902125011 | 76 | 165 | 1.0 | 4.0 | 0.00 | 0.00 | 0.00 | 73 | 1016.0 |
| 20260902124511 | 76 | 167 | 1.0 | 5.0 | 0.00 | 0.00 | 0.00 | 73 | 1015.9 |
| 20260902124012 | 76 | 163 | 1.0 | 6.0 | 0.00 | 0.00 | 0.00 | 73 | 1016.0 |
| 20260902123512 | 76 | 144 | 1.0 | 6.0 | 0.00 | 0.00 | 0.00 | 73 | 1016.0 |
| 20260902123011 | 76 | 128 | 1.0 | 4.0 | 0.00 | 0.00 | 0.00 | 73 | 1016.0 |
| 20260902122515 | 76 | 98 | 1.0 | 7.0 | 0.00 | 0.00 | 0.00 | 72 | 1015.9 |
| 20260902122014 | 76 | 169 | 1.0 | 7.0 | 0.00 | 0.00 | 0.00 | 72 | 1015.9 |
| 20260902121514 | 76 | 178 | 0.0 | 3.0 | 0.00 | 0.00 | 0.00 | 72 | 1015.7 |
| 20260902121014 | 76 | 145 | 0.0 | 3.0 | 0.00 | 0.00 | 0.00 | 72 | 1015.8 |
| 20260902120511 | 76 | 145 | 1.0 | 4.0 | 0.00 | 0.00 | 0.00 | 72 | 1015.6 |
| 20260902120012 | 76 | 144 | 1.0 | 5.0 | 0.00 | 0.00 | 0.00 | 71 | 1015.6 |
| 20260902115512 | 76 | 164 | 1.0 | 5.0 | 0.00 | 0.00 | 0.00 | 71 | 1015.6 |
| 20260902115012 | 76 | 142 | 1.0 | 2.0 | 0.00 | 0.00 | 0.00 | 71 | 1015.5 |
| 20260902114011 | 76 | 132 | 0.0 | 5.0 | 0.00 | 0.00 | 0.00 | 71 | 1015.4 |
| 20260902113512 | 76 | 127 | 1.0 | 5.0 | 0.00 | 0.00 | 0.00 | 71 | 1015.5 |
| 20260902113011 | 76 | 148 | 1.0 | 5.0 | 0.00 | 0.00 | 0.00 | 71 | 1015.5 |
| 20260902112505 | 77 | 152 | 1.0 | 4.0 | 0.00 | 0.00 | 0.00 | 70 | 1015.4 |
| 20260902111958 | 77 | 143 | 1.0 | 3.0 | 0.00 | 0.00 | 0.00 | 70 | 1015.4 |
| 20260902111454 | 77 | 146 | 1.0 | 3.0 | 0.00 | 0.00 | 0.00 | 70 | 1015.4 |
| 20260902110953 | 77 | 136 | 1.0 | 3.0 | 0.00 | 0.00 | 0.00 | 69 | 1015.4 |
| 20260902105949 | 77 | 144 | 0.0 | 7.0 | 0.00 | 0.00 | 0.00 | 69 | 1015.3 |
| 20260902104950 | 77 | 157 | 0.0 | 2.0 | 0.00 | 0.00 | 0.00 | 68 | 1015.4 |
| 20260902104448 | 78 | 157 | 0.0 | 2.0 | 0.00 | 0.00 | 0.00 | 68 | 1015.3 |
| 20260902103446 | 78 | 157 | 0.0 | 2.0 | 0.00 | 0.00 | 0.00 | 68 | 1015.3 |
| 20260902102945 | 78 | 157 | 0.0 | 2.0 | 0.00 | 0.00 | 0.00 | 68 | 1015.2 |
| 20260902100941 | 78 | 206 | 0.0 | 2.0 | 0.00 | 0.00 | 0.00 | 68 | 1015.2 |
| 20260902100440 | 78 | 165 | 0.0 | 2.0 | 0.00 | 0.00 | 0.00 | 67 | 1015.1 |
| 20260902094938 | 78 | 184 | 0.0 | 2.0 | 0.00 | 0.00 | 0.00 | 67 | 1015.1 |
| 20260902094437 | 78 | 225 | 0.0 | 2.0 | 0.00 | 0.00 | 0.00 | 67 | 1015.1 |
| 20260902093939 | 78 | 248 | 0.0 | 2.0 | 0.00 | 0.00 | 0.00 | 67 | 1015.1 |
| 20260902092422 | 78 | 182 | 1.0 | 2.0 | 0.00 | 0.00 | 0.00 | 67 | 1014.9 |
| 20260902091915 | 78 | 182 | 0.0 | 2.0 | 0.00 | 0.00 | 0.00 | 66 | 1014.9 |
| 20260902090903 | 78 | 194 | 0.0 | 2.0 | 0.00 | 0.00 | 0.00 | 66 | 1014.9 |
| 20260902090357 | 79 | 259 | 0.0 | 2.0 | 0.00 | 0.00 | 0.00 | 66 | 1014.9 |
| 20260902085851 | 79 | 207 | 0.0 | 1.0 | 0.00 | 0.00 | 0.00 | 66 | 1014.9 |
| 20260902084840 | 79 | 209 | 0.0 | 2.0 | 0.00 | 0.00 | 0.00 | 66 | 1014.8 |
| 20260902084333 | 79 | 208 | 0.0 | 2.0 | 0.00 | 0.00 | 0.00 | 66 | 1014.9 |
| 20260902083827 | 79 | 207 | 0.0 | 1.0 | 0.00 | 0.00 | 0.00 | 66 | 1014.9 |
| 20260902082815 | 79 | 161 | 1.0 | 4.0 | 0.00 | 0.00 | 0.00 | 66 | 1014.9 |
| 20260902082310 | 79 | 150 | 1.0 | 5.0 | 0.00 | 0.00 | 0.00 | 66 | 1014.9 |
| 20260902081803 | 79 | 179 | 1.0 | 5.0 | 0.00 | 0.00 | 0.00 | 66 | 1014.8 |
| 20260902080751 | 79 | 213 | 0.0 | 2.0 | 0.00 | 0.00 | 0.00 | 65 | 1014.7 |
| 20260902080251 | 79 | 237 | 0.0 | 4.0 | 0.00 | 0.00 | 0.00 | 66 | 1014.7 |
| 20260902075249 | 79 | 205 | 0.0 | 2.0 | 0.00 | 0.00 | 0.00 | 65 | 1014.7 |
| 20260902074750 | 79 | 202 | 0.0 | 2.0 | 0.00 | 0.00 | 0.00 | 65 | 1014.7 |
| 20260902074250 | 79 | 211 | 0.0 | 5.0 | 0.00 | 0.00 | 0.00 | 65 | 1014.8 |
| 20260902073747 | 79 | 212 | 1.0 | 5.0 | 0.00 | 0.00 | 0.00 | 65 | 1014.7 |
| 20260902071745 | 79 | 198 | 1.0 | 5.0 | 0.00 | 0.00 | 0.00 | 64 | 1014.8 |
| 20260902070247 | 80 | 172 | 1.0 | 2.0 | 0.00 | 0.00 | 0.00 | 64 | 1014.8 |
| 20260902065743 | 80 | 161 | 1.0 | 3.0 | 0.00 | 0.00 | 0.00 | 64 | 1014.8 |
| 20260902065242 | 80 | 221 | 0.0 | 3.0 | 0.00 | 0.00 | 0.00 | 64 | 1014.8 |
| 20260902064743 | 80 | 208 | 0.0 | 2.0 | 0.00 | 0.00 | 0.00 | 63 | 1014.8 |
| 20260902064241 | 80 | 209 | 0.0 | 2.0 | 0.00 | 0.00 | 0.00 | 63 | 1014.8 |
| 20260902063741 | 80 | 206 | 0.0 | 2.0 | 0.00 | 0.00 | 0.00 | 63 | 1014.8 |
| 20260902063235 | 80 | 155 | 0.0 | 2.0 | 0.00 | 0.00 | 0.00 | 63 | 1014.9 |
| 20260902062729 | 80 | 145 | 0.0 | 2.0 | 0.00 | 0.00 | 0.00 | 63 | 1014.8 |
| 20260902062222 | 80 | 160 | 0.0 | 2.0 | 0.00 | 0.00 | 0.00 | 63 | 1014.9 |
| 20260902061717 | 80 | 203 | 0.0 | 2.0 | 0.00 | 0.00 | 0.00 | 63 | 1014.9 |
| 20260902061211 | 80 | 221 | 0.0 | 2.0 | 0.00 | 0.00 | 0.00 | 62 | 1014.9 |
| 20260902060705 | 81 | 186 | 0.0 | 2.0 | 0.00 | 0.00 | 0.00 | 62 | 1014.9 |
| 20260902060158 | 81 | 187 | 0.0 | 2.0 | 0.00 | 0.00 | 0.00 | 62 | 1014.9 |
| 20260902055653 | 81 | 245 | 0.0 | 2.0 | 0.00 | 0.00 | 0.00 | 62 | 1014.9 |
| 20260902054640 | 81 | 129 | 0.0 | 1.0 | 0.00 | 0.00 | 0.00 | 61 | 1014.9 |
| 20260902053629 | 81 | 126 | 0.0 | 2.0 | 0.00 | 0.00 | 0.00 | 61 | 1015.0 |